Aérodrome :
LOGIN :

S'inscrire | Disclaimer

   EN    FR    IT 

 










Légende :    VFR   VFR Marginal   IFR   IFR Intensif   IFR Très Intensif
Visi : 
Plafond : 
>= 8 km
>= 3000ft
5 à 8 km
1000 à 3000 ft
1500m à 5 km
500 à 1000 ft
800 à 1500m
200 à 500 ft
< 800m
< 200 ft
Symboles :   Orages  Brouillard  Fortes neiges  Fortes précipitations  Vent > 20 kt
SIGMETs :   Divers  Orages  Givrage  Turbulence  Onde Orograph.  Cendres Volcan.







- Altitude de l'aérodrome : 527 ft
- Code IATA : DBV


LDDU - Dubrovnik

DERNIER METAR :
  • 232330Z 12012KT 5000 BR OVC006 15/14 Q1017

METARs EXPIRÉS :
  • 232300Z 13013KT 5000 BR OVC006 15/14 Q1017
  • 232230Z 13012KT 5000 BR OVC008 15/14 Q1017
  • 232200Z 13013KT 5000 BR BKN008 15/14 Q1017 BECMG SCT010 TEMPO 4000
  • 232100Z 13013KT 100V160 4000 -RA BR OVC003 15/14 Q1016 NOSIG

TAF TAF LDDU
Valide du 24 à 00h jusqu'au 25 à 00h UTC


232325Z 2400/2500 12015KT 9999 SCT015 BKN025 TX21/2413Z TN14/2404Z
PROB40
TEMPO 2400/2406 4000 RA BKN004 OVC012
BECMG 2409/2412 14010KT
BECMG 2416/2418 10006KT
Pas de NOTAMs connus pour ce terrain.



MET'MAP, la Météo Aéronautique d'un coup d'oeil ! - Copyright ORBIFLY Décembre 2007 - Disclaimer

ORBIFLY MET'MAP TEAM :

Programmation & Développement : Alexandra Zaïnal
Conception & Développement : Baudouin d'Aumeries
Co-Programmation & Développement : Marc-Olivier Méhu
Soutien technique & logistique : Manuel Goepfert

Contact : metmap@orbifly.com




SOURCES & CREDITS :

   NOAA